Weather History for KHIB - February, 2012

Change the Weather History Date:

Friday, February 24, 2012

  Actual Average Record
Temperature  
Mean Temperature 16 °F -  
Max Temperature 21 °F 26 °F 57 °F (1976)
Min Temperature 10 °F 6 °F -33 °F (1965)
Degree Days  
Heating Degree Days 50    
Moisture  
Dew Point 10 °F    
Average Humidity 77    
Maximum Humidity 93    
Minimum Humidity 62    
Precipitation  
Precipitation 0.00 in - - ()
Sea Level Pressure  
Sea Level Pressure 29.85 in    
Wind  
Wind Speed 7 mph (WNW)    
Max Wind Speed 18 mph    
Max Gust Speed 24 mph    
Visibility 9 miles    
Events Snow    
Averages and records for this station are not official NWS values.
T = Trace of Precipitation, MM = Missing Value Source: NWS Daily Summary

Daily Weather History Graph

Daily Weather History Graph

Search for Another Location

Airport or City:

Trip Planner

Search our weather history database for the weather conditions in past years. The results will help you decide how hot, cold, wet, or windy it might be!

Date:

Astronomy

Feb. 24, 2012 Rise Set
Actual Time 7:01 AM CST 5:48 PM CST
Civil Twilight 6:30 AM CST 6:19 PM CST
Nautical Twilight 5:55 AM CST 6:54 PM CST
Astronomical Twilight 5:19 AM CST 7:30 PM CST
Moon 7:41 AM CST (2/24) 9:10 PM CST (2/24)
Length of Visible Light 11h 48m
Length of Day
10h 46m
Waxing Crescent, 8% of the Moon is Illuminated
Feb 24
Waxing Crescent
Feb 29
First Quarter
Mar 8
Full
Mar 14
Last Quarter
Mar 22
New

Hourly Weather History & Observations

Time (CST) Temp. Windchill Dew Point Humidity Pressure Visibility Wind Dir Wind Speed Gust Speed Precip Events Conditions
12:53 AM 19.9 °F - 16.0 °F 85% 29.75 in 10.0 mi Calm Calm - 0.00 in Snow Light Snow
1:53 AM 19.9 °F - 16.0 °F 85% 29.74 in 4.0 mi Calm Calm - 0.00 in Snow Light Snow
2:53 AM 19.9 °F - 17.1 °F 89% 29.73 in 6.0 mi Calm Calm - 0.00 in Snow Light Snow
3:53 AM 19.9 °F 14.9 °F 17.1 °F 89% 29.73 in 3.0 mi West 3.5 mph - 0.00 in Snow Light Snow
4:40 AM 19.4 °F 14.3 °F 17.6 °F 93% 29.66 in 10.0 mi WSW 3.5 mph - 0.00 in   Overcast
4:53 AM 21.0 °F 16.2 °F 17.1 °F 85% 29.73 in 10.0 mi West 3.5 mph - 0.00 in   Overcast
5:36 AM 19.4 °F 9.5 °F 15.8 °F 86% 29.67 in 10.0 mi NW 8.1 mph - N/A   Overcast
5:53 AM 19.9 °F 9.3 °F 15.1 °F 81% 29.75 in 10.0 mi WNW 9.2 mph - N/A   Overcast
6:53 AM 18.0 °F 5.4 °F 10.9 °F 74% 29.78 in 9.0 mi WNW 11.5 mph 21.9 mph 0.00 in   Overcast
7:26 AM 15.8 °F -0.6 °F 10.4 °F 79% 29.72 in 10.0 mi NW 18.4 mph 24.2 mph 0.00 in   Overcast
7:53 AM 15.1 °F 0.5 °F 9.0 °F 77% 29.82 in 10.0 mi WNW 13.8 mph 20.7 mph 0.00 in   Overcast
8:53 AM 14.0 °F -1.4 °F 8.1 °F 77% 29.83 in 10.0 mi NW 15.0 mph - 0.00 in   Overcast
9:35 AM 14.0 °F -1.4 °F 8.6 °F 79% 29.75 in 8.0 mi NW 15.0 mph - 0.00 in Snow Light Snow
9:53 AM 15.1 °F 1.1 °F 8.1 °F 74% 29.83 in 9.0 mi WNW 12.7 mph - 0.00 in   Overcast
10:53 AM 15.1 °F 1.1 °F 8.1 °F 74% 29.84 in 10.0 mi NW 12.7 mph - 0.00 in   Overcast
11:53 AM 17.1 °F 5.8 °F 8.1 °F 68% 29.84 in 10.0 mi NW 9.2 mph - 0.00 in   Overcast
12:53 PM 19.0 °F 6.1 °F 9.0 °F 65% 29.83 in 10.0 mi NW 12.7 mph 18.4 mph 0.00 in   Overcast
1:53 PM 19.0 °F 5.0 °F 9.0 °F 65% 29.84 in 10.0 mi NW 15.0 mph - 0.00 in   Overcast
2:53 PM 19.9 °F 6.2 °F 9.0 °F 62% 29.86 in 10.0 mi NW 15.0 mph 19.6 mph 0.00 in   Overcast
3:53 PM 19.0 °F 6.8 °F 9.0 °F 65% 29.89 in 10.0 mi WNW 11.5 mph - 0.00 in   Overcast
4:25 PM 17.6 °F 2.2 °F 8.6 °F 68% 29.83 in 10.0 mi NW 17.3 mph - 0.00 in   Overcast
4:53 PM 16.0 °F 1.1 °F 8.1 °F 71% 29.92 in 10.0 mi NW 15.0 mph - 0.00 in   Overcast
5:53 PM 15.1 °F 1.1 °F 7.0 °F 70% 29.96 in 10.0 mi NW 12.7 mph - N/A   Overcast
6:53 PM 14.0 °F 1.2 °F 6.1 °F 71% 29.99 in 10.0 mi WNW 10.4 mph - N/A   Overcast
7:53 PM 12.0 °F -0.4 °F 6.1 °F 77% 30.01 in 9.0 mi WNW 9.2 mph - N/A   Overcast
8:53 PM 10.9 °F -3.4 °F 6.1 °F 81% 30.02 in 10.0 mi NW 11.5 mph - 0.00 in   Overcast
9:53 PM 10.9 °F -1.8 °F 6.1 °F 81% 30.03 in 10.0 mi WNW 9.2 mph - N/A   Overcast
10:53 PM 10.0 °F -3.7 °F 5.0 °F 80% 30.03 in 6.0 mi NW 10.4 mph - 0.00 in Snow Light Snow
11:24 PM 10.4 °F -2.4 °F 6.8 °F 85% 29.94 in 9.0 mi WNW 9.2 mph - 0.00 in   Overcast
11:53 PM 10.9 °F -4.1 °F 6.1 °F 81% 30.04 in 10.0 mi NW 12.7 mph - 0.00 in   Overcast